Flag for U.S.A. Weather past 2 weeks in Atlantic City, New Jersey, U.S.A.

37 °F

Passing clouds.

Feels Like: 30 °F
Forecast: 44 / 52 °F
Wind: 10 mph from North

Location: Atlantic City International Airport

Current Time: Nov 30, 2015 at 4:05:02 AM

Latest Report: Nov 30, 2015 at 2:54 AM

Visibility: 10 mi

Pressure: 30.34 "Hg

Humidity: 76%

Dew point: 30 °F

Location of Atlantic CityLocation

Historic Weather in Atlantic City — Graph


Atlantic City temperature yesterday

Maximum temperature yesterday: 49 °F (at 12:54 AM)
Minimum temperature yesterday: 37 °F (at 7:54 PM)
Average temperature yesterday: 43 °F

Past Weeks' High & Low Weather Summary

High69 °F (Nov 16, 1:54 PM)97% (Nov 19, 9:01 PM)30.80 "Hg (Nov 19, 9:01 PM)
Low23 °F (Nov 24, 5:54 AM)27% (Nov 16, 1:54 PM)29.88 "Hg (Nov 22, 1:54 AM)
Average48 °F69%30.30 "Hg
* Reported Nov 15 1:54 AM — Nov 30 1:54 AM, Atlantic City, Weather by CustomWeather, © 2015

Note: Actual official high and low records may vary slightly from our data, if they occured in-between our weather recording intervals... More about our weather records


Atlantic City weather history for previous 24 hours

Time TempWeatherWind HumidityBarometerVisibility
1:54 AM
Mon, Nov 30
37 °FClear.9 mph73%30.33 "Hg10 mi
12:54 AM37 °FClear.10 mph70%30.32 "Hg10 mi
11:54 PM
Sun, Nov 29
38 °FClear.10 mph68%30.32 "Hg10 mi
10:54 PM38 °FClear.10 mph68%30.30 "Hg10 mi
9:54 PM39 °FClear.9 mph65%30.29 "Hg10 mi
8:54 PM38 °FClear.9 mph83%30.27 "Hg10 mi
7:54 PM37 °FClear.5 mph89%30.28 "Hg10 mi
6:54 PM41 °FClear.3 mph86%30.26 "Hg10 mi
4:54 PM43 °FOvercast.3 mph82%30.23 "Hg10 mi
3:54 PM44 °FOvercast.7 mph76%30.22 "Hg10 mi
2:54 PM44 °FMore clouds than sun.6 mph76%30.20 "Hg10 mi
2:01 PM43 °FOvercast.9 mph82%30.20 "Hg10 mi
1:54 PM43 °FOvercast.8 mph86%30.20 "Hg10 mi
12:54 PM42 °FMostly cloudy.8 mph89%30.22 "Hg10 mi
11:54 AM43 °FLow clouds.10 mph89%30.22 "Hg10 mi
10:54 AM43 °FMostly cloudy.7 mph89%30.22 "Hg10 mi
9:54 AM42 °FLow clouds.7 mph92%30.23 "Hg10 mi
8:54 AM42 °FLight rain. Overcast.7 mph92%30.24 "Hg7 mi
7:54 AM43 °FLight rain. Mostly cloudy.9 mph89%30.22 "Hg8 mi
6:54 AM43 °FLight rain. Mostly cloudy.9 mph93%30.21 "Hg7 mi
5:54 AM44 °FLight rain. Overcast.7 mph93%30.18 "Hg7 mi
4:54 AM45 °FLight rain. Fog.6 mph97%30.18 "Hg4 mi
Weather by CustomWeather, © 2015

See weather overviewHow to use our weather pages